This is the latest recevied weather packets stored in our database for station/object OH7GGX-14. If no packets are shown the sender has not sent any weather packets the latest 10 day(s).
| Time | Temp. | Humidity | Pressure | Rain* | Wind** | Luminosity | Snow |
|---|---|---|---|---|---|---|---|
| 1777811498 | 12.78° C | 64% | 1006.8 hPa | 0 mm | - | - | - |
| 1777810898 | 12.78° C | 64% | 1006.7 hPa | 0 mm | - | - | - |
| 1777810298 | 12.22° C | 67% | 1006.7 hPa | 0 mm | - | - | - |
| 1777809698 | 12.22° C | 70% | 1006.9 hPa | 0 mm | - | - | - |
| 1777809098 | 12.22° C | 73% | 1006.8 hPa | 0 mm | - | - | - |
| 1777808498 | 12.22° C | 74% | 1006.8 hPa | 0 mm | - | - | - |
| 1777807898 | 12.22° C | 74% | 1006.8 hPa | 0 mm | - | - | - |
| 1777807298 | 12.22° C | 77% | 1006.7 hPa | 0 mm | - | - | - |
| 1777806698 | 12.22° C | 77% | 1006.6 hPa | 0 mm | - | - | - |
| 1777806098 | 12.22° C | 77% | 1006.5 hPa | 0 mm | - | - | - |
| 1777805498 | 12.22° C | 79% | 1006.3 hPa | 0 mm | - | - | - |
| 1777804898 | 12.22° C | 80% | 1006.4 hPa | 0 mm | - | - | - |
| 1777804298 | 12.78° C | 83% | 1006.1 hPa | 0 mm | - | - | - |
| 1777803698 | 12.78° C | 84% | 1006 hPa | 0 mm | - | - | - |
| 1777803098 | 12.22° C | 88% | 1005.9 hPa | 0.25 mm | - | - | - |
| 1777802498 | 12.22° C | 91% | 1006 hPa | 0.25 mm | - | - | - |
| 1777801898 | 12.22° C | 92% | 1005.9 hPa | 0.25 mm | - | - | - |
| 1777801298 | 12.22° C | 93% | 1006.1 hPa | 0.25 mm | - | - | - |
| 1777800698 | 11.67° C | 92% | 1006.2 hPa | 0.25 mm | - | - | - |
| 1777800098 | 12.22° C | 89% | 1006.1 hPa | 0.25 mm | - | - | - |
| 1777799498 | 12.22° C | 87% | 1006.1 hPa | 0 mm | - | - | - |
| 1777798898 | 12.22° C | 84% | 1005.9 hPa | 0 mm | - | - | - |
| 1777798298 | 12.22° C | 82% | 1005.9 hPa | 0 mm | - | - | - |
| 1777797698 | 12.22° C | 80% | 1005.8 hPa | 0 mm | - | - | - |
| 1777797098 | 12.78° C | 79% | 1005.7 hPa | 0 mm | - | - | - |
* Rain latest hour (hover to see other rain measurements)
** Current wind speed in m/s (hover to see current wind gust speed)